weather.gov     
National Weather Service

Regional Weather Roundup
NWS Homepage
This page is being discontinued on March 12, 2014.
The same data is available at this site. Please update your bookmarks.
Thank you, and we apologize for the inconvenience.
Please send an email to SR-SRH.Webmaster@noaa.gov with any concerns.


Current Version
Previous Version:    01  02  03  04  05  06  07  08  09  10  11  12  13  14  15  16  17  18  19  20  21  22  23  24  25  26  27  28  29  30  
   31  32  33  34  35  36  37  38  39  40  41  42  43  44  45  46  47  48  49  50  51  52  53  54  55  
[Printable]
222
ASCA42 TJSJ 310711
RWRPR
PUERTO RICO/U.S. VIRGIN ISLANDS HOURLY WEATHER ROUNDUP
NATIONAL WEATHER SERVICE SAN JUAN PR
300 AM AST SAT JAN 31 2015

PRZ001-004-310800-
PUERTO RICO

CITY           SKY/WX    TMP DP  RH WIND       PRES   REMARKS
SAN JUAN LMM   PTCLDY    75  72  88 CALM      29.96F
PONCE          PTCLDY    70  68  94 CALM      29.95
CEIBA          CLEAR     75  70  83 NE5       29.98F
$$

PRZ006-007-310800-
U.S. VIRGIN ISLANDS

CITY           SKY/WX    TMP DP  RH WIND       PRES   REMARKS
$$

HOURLY WEATHER ROUNDUP FOR THE NEWS MEDIA

CITY           SKY/WX    TMP DP  RH WIND       PRES   REMARKS
MIAMI          MOCLDY    63  57  81 NW5       30.16S
ORLANDO        PTCLDY    52  36  54 N6        30.25R
NEW YORK       PTCLDY    18   2  49 NW22G38   30.03R WCI   1
NEWARK         PTCLDY    16   2  54 NW21G35   30.07R WCI  -1
CHICAGO        CLOUDY    21  14  74 S6        30.31F WCI  13
HARTFORD       CLOUDY    18   5  57 NW14G33   29.72R WCI   4
BOSTON         LGT SNOW  16   6  65 NW25G36   29.72S WCI  -3
DALLAS         CLOUDY    50  29  44 SE9       30.28F
PHILADELPHIA   CLEAR     18  -1  43 NW20G32   30.18R WCI   2




U.S. Dept. of Commerce
NOAA National Weather Service
1325 East West Highway
Silver Spring, MD 20910
E-mail: w-nws.webmaster@noaa.gov
Page last modified: May 16, 2007
NATIONAL WEATHER SERVICE: for Safety, for Work, for Fun - FOR LIFE